[[{"header":{"parameterUnit":"m.s-1","parameterCategory":1,"la1":30.2991,"la2":30.254,"lo1":-89.0895,"lo2":-89.0444,"dx":0.0017,"dy":0.0017,"nx":28,"ny":28,"refTime":"2022-11-29T09:00:00:Z","depth":0,"parameterNumber":2,"parameterNumberName":"U-component_of_WINDS"},"data":[0,0,0,0,0,0,0,0,0,0,0,0,0,0,0,0,0,0,0,0,0,0,0,0,0,0,0,0,0,0,0,0,0,0,0,0,0,0,0,0,0,0,0,0,0,0,0,0,0,0,0,0,0,0,0,0,0,0,-3.2511,-3.2512,0,-3.2596,-3.2597,-3.2598,-3.2522,-3.2519,-3.2516,-3.2513,-3.2602,-3.2607,-3.2613,0,0,0,0,0,0,0,0,0,0,0,0,0,-3.2284,-3.2288,-3.2511,-3.2512,-3.2513,-3.2596,-3.2597,-3.2598,-3.2523,-3.2519,-3.2515,-3.2511,-3.26,-3.2607,-3.2613,0,0,0,0,0,0,0,0,0,0,0,0,0,-3.2377,-3.229,-3.2511,-3.2485,-3.2484,-3.2596,-3.2597,-3.2599,-3.2523,-3.2519,-3.2514,-3.251,-3.2598,-3.2606,-3.2614,-3.2756,0,0,-3.2638,-3.2641,0,0,0,0,0,0,0,0,-3.2372,-3.2386,-3.2488,-3.2487,-3.2486,-3.2544,-3.255,-3.2651,-3.2525,-3.2509,-3.2513,-3.2507,-3.2587,-3.2595,-3.2621,-3.276,-3.2764,-3.2639,-3.2644,-3.2647,-3.2649,0,0,0,0,0,0,0,-3.2366,-3.2382,-3.2545,-3.249,-3.2488,-3.247,-3.2478,-3.2569,-3.2573,-3.251,-3.2504,-3.2515,-3.2585,-3.2614,-3.2623,-3.2765,-3.2639,-3.2646,-3.265,-3.2654,-3.3024,-3.3029,0,0,0,0,0,0,-3.2362,-3.2377,-3.2542,-3.2547,-3.2416,-3.2478,-3.2487,-3.253,-3.2571,-3.2573,-3.2519,-3.2511,-3.2603,-3.2614,-3.2626,-3.2795,-3.2647,-3.2654,-3.2659,-3.3019,-3.3025,-3.3031,0,0,0,0,0,0,-3.2357,-3.2377,-3.2538,-3.2461,-3.248,-3.2487,-3.2536,-3.2534,-3.2563,-3.2579,-3.2579,-3.2548,-3.26,-3.2615,-3.2724,-3.2797,-3.2658,-3.2665,-3.3013,-3.3021,-3.3028,-3.3135,0,0,0,0,0,0,-3.2351,-3.2376,-3.243,-3.2462,-3.2484,-3.2635,-3.254,-3.2539,-3.2576,-3.2567,-3.2606,-3.2608,-3.2597,-3.2713,-3.2732,-3.2806,-3.2671,-3.3007,-3.3017,-3.3026,-3.3125,-3.3145,-3.3163,0,0,0,0,0,-3.2343,-3.2457,-3.2433,-3.2453,-3.2552,-3.264,-3.2652,-3.2637,-3.2583,-3.2637,-3.2647,-3.2607,-3.2785,-3.2724,-3.2745,-3.2823,-3.3002,-3.3014,-3.3025,-3.3117,-3.3141,-3.3162,0,0,0,0,0,0,-3.2435,-3.2461,-3.2435,-3.2563,-3.2599,-3.2627,-3.2695,-3.2664,-3.2718,-3.2707,-3.2686,-3.2695,-3.2811,-3.2827,-3.2758,-3.2962,-3.2885,-3.2901,-3.2948,-3.2971,-3.299,-3.2984,-3.2678,0,0,0,0,0,-3.2469,-3.2538,-3.2558,-3.2669,-3.2688,-3.2689,-3.2727,-3.2711,-3.2749,-3.2764,-3.2782,-3.2821,-3.2885,-3.2929,-3.2989,-3.3126,-3.3134,-3.3189,-3.3208,-3.3224,-3.3239,-3.3312,-3.3338,-3.3068,-3.3068,-3.3068,0,0,-3.2543,-3.2566,-3.2611,-3.2688,-3.2714,-3.2787,-3.2703,-3.2783,-3.2836,-3.2777,-3.2881,-3.2895,-3.2937,-3.3061,-3.3116,-3.3078,-3.3314,-3.3238,-3.3251,-3.3257,-3.3327,-3.3352,-3.3375,-3.3076,-3.3075,-3.3074,0,0,-3.2714,-3.2737,-3.2833,-3.2861,-3.2902,-3.2901,-3.2924,-3.2955,-3.2963,-3.3066,-3.3023,-3.3086,-3.3198,-3.323,-3.326,-3.3441,-3.3406,-3.3461,-3.3561,-3.3633,-3.3654,-3.3673,-3.3738,-3.3762,-3.3475,-3.3476,-3.3476,0,-3.28,-3.2907,-3.2886,-3.2969,-3.3004,-3.2952,-3.3049,-3.3077,-3.3136,-3.3162,-3.3118,-3.3257,-3.3281,-3.3411,-3.3455,-3.3481,-3.3507,-3.3458,-3.3652,-3.3671,-3.3688,-3.375,-3.3775,-3.3482,-3.3481,-3.3481,-3.348,0,-3.3011,-3.3085,-3.3157,-3.3215,-3.3258,-3.3348,-3.334,-3.3387,-3.3367,-3.3371,-3.3477,-3.3504,-3.3569,-3.3598,-3.358,-3.3726,-3.3701,-3.3655,-3.3578,-3.3721,-3.3779,-3.3802,-3.3492,-3.3489,-3.3487,-3.3486,0,0,-3.3245,-3.3288,-3.3315,-3.334,-3.338,-3.3438,-3.3524,-3.3587,-3.3627,-3.3669,-3.3742,-3.3837,-3.3794,-3.3829,-3.3814,-3.3877,-3.4019,-3.3823,-3.3823,-3.3859,-3.4181,-3.4217,-3.4245,-3.3994,-3.3999,-3.4002,-3.4178,0,-3.3418,-3.3568,-3.3551,-3.3695,-3.3764,-3.3714,-3.3789,-3.3823,-3.3828,-3.3887,-3.3893,-3.3961,-3.3899,-3.392,-3.3979,-3.3989,-3.4083,-3.3975,-3.4063,-3.4066,-3.4056,-3.4275,-3.4313,-3.4478,-3.4201,-3.4205,-3.4207,0,-3.3641,-3.369,-3.384,-3.3869,-3.3897,-3.3966,-3.4021,-3.4078,-3.4114,-3.4114,-3.4152,-3.4125,-3.4212,-3.4131,-3.4251,-3.4178,-3.4212,-3.4222,-3.4228,-3.4237,-3.4147,-3.4292,-3.453,-3.4556,-3.4243,-3.424,-3.4237,0,-3.3797,-3.3901,-3.4004,-3.4027,-3.4063,-3.4112,-3.413,-3.4161,-3.42,-3.4248,-3.4273,-3.4331,-3.4363,-3.4409,-3.4398,-3.434,-3.4521,-3.4439,-3.4524,-3.4524,-3.4566,-3.4564,-3.4815,-3.4586,-3.4585,-3.4585,-3.4584,0,-3.3994,-3.4088,-3.4075,-3.4139,-3.4243,-3.4222,-3.4325,-3.4337,-3.4365,-3.443,-3.439,-3.4452,-3.4434,-3.4495,-3.4487,-3.4588,-3.4603,-3.4605,-3.4602,-3.461,-3.461,-3.4633,-3.4622,-3.4591,-3.459,-3.4589,-3.4587,0,-3.4188,-3.4182,-3.4292,-3.4317,-3.4325,-3.4401,-3.4422,-3.4482,-3.4483,-3.4566,-3.4584,-3.4586,-3.4656,-3.465,-3.4728,-3.4723,-3.4848,-3.4831,-3.4836,-3.4833,-3.4919,-3.4911,-3.5195,-3.5232,-3.4977,-3.498,-3.4982,0,-3.4315,-3.4386,-3.4418,-3.4458,-3.4479,-3.4545,-3.4583,-3.4564,-3.4606,-3.4652,-3.4707,-3.4773,-3.4825,-3.4939,-3.4947,-3.5007,-3.4992,-3.5087,-3.5001,-3.5006,-3.4995,-3.4992,-3.4999,-3.5105,-3.5108,-3.511,-3.5112,0,-3.454,-3.4534,-3.4591,-3.4647,-3.4694,-3.4737,-3.4776,-3.4812,-3.4797,-3.4846,-3.4916,-3.4957,-3.5036,-3.5102,-3.5159,-3.5176,-3.5143,-3.5139,-3.5162,-3.5171,-3.5172,-3.5174,-3.4885,-3.5133,-3.5131,-3.513,-3.5128,-3.5128,-3.4706,-3.4767,-3.4798,-3.4863,-3.489,-3.4927,-3.4985,-3.4992,-3.5051,-3.5114,-3.5099,-3.5178,-3.5211,-3.5283,-3.5307,-3.5369,-3.5334,-3.5368,-3.5376,-3.5385,-3.5396,-3.516,-3.5379,-3.5378,-3.5378,-3.5377,-3.5377,0,-3.493,-3.4948,-3.5007,-3.5063,-3.5114,-3.5075,-3.5116,-3.5162,-3.5232,-3.5265,-3.5317,-3.5398,-3.5461,-3.5474,-3.5535,-3.5582,-3.5568,-3.5599,-3.5596,-3.5601,-3.5422,-3.5397,-3.5609,-3.5609,-3.5609,-3.5609,-3.5609,-3.5609,-3.5054,-3.5155,-3.5152,-3.5266,-3.5282,-3.536,-3.5387,-3.5421,-3.5447,-3.5539,-3.5591,-3.5598,-3.5624,-3.5686,-3.5742,-3.5744,-3.5769,-3.5806,-3.5803,-3.5636,-3.5613,-3.5591,-3.5567,-3.5811,-3.5812,-3.5976,-3.5977,-3.5978]},{"header":{"parameterUnit":"m.s-1","parameterCategory":1,"la1":30.2991,"la2":30.254,"lo1":-89.0895,"lo2":-89.0444,"dx":0.0017,"dy":0.0017,"nx":28,"ny":28,"refTime":"2022-11-29T09:00:00:Z","depth":0,"parameterNumber":3,"parameterNumberName":"V-component_of_WINDS"},"data":[0,0,0,0,0,0,0,0,0,0,0,0,0,0,0,0,0,0,0,0,0,0,0,0,0,0,0,0,0,0,0,0,0,0,0,0,0,0,0,0,0,0,0,0,0,0,0,0,0,0,0,0,0,0,0,0,0,0,-6.9977,-6.9978,0,-7.0083,-7.0084,-7.0086,-6.9999,-6.9995,-6.9992,-6.9988,-7.0092,-7.0098,-7.0104,0,0,0,0,0,0,0,0,0,0,0,0,0,-6.9694,-6.97,-6.9977,-6.9979,-6.998,-7.0083,-7.0084,-7.0086,-6.9999,-6.9995,-6.9991,-6.9986,-7.009,-7.0097,-7.0105,0,0,0,0,0,0,0,0,0,0,0,0,0,-6.981,-6.9701,-6.9977,-6.9949,-6.9948,-7.0083,-7.0085,-7.0086,-7.0,-6.9995,-6.9989,-6.9984,-7.0088,-7.0097,-7.0106,-7.0272,0,0,-7.0134,-7.0138,0,0,0,0,0,0,0,0,-6.9804,-6.9821,-6.9952,-6.9951,-6.995,-7.0022,-7.0023,-7.0148,-7.0002,-6.998,-6.9988,-6.9982,-7.0073,-7.0083,-7.0115,-7.0277,-7.0282,-7.0135,-7.0141,-7.0144,-7.0147,0,0,0,0,0,0,0,-6.9796,-6.9815,-7.0019,-6.9954,-6.9953,-6.9929,-6.994,-7.0046,-7.0056,-6.9982,-6.9976,-6.999,-7.0071,-7.0106,-7.0117,-7.0283,-7.0135,-7.0143,-7.0149,-7.0152,-7.0585,-7.059,0,0,0,0,0,0,-6.9791,-6.9809,-7.0016,-7.0022,-6.9862,-6.9939,-6.9951,-7.0005,-7.0055,-7.0057,-6.9994,-6.9985,-7.0093,-7.0106,-7.012,-7.0317,-7.0144,-7.0153,-7.0158,-7.0579,-7.0586,-7.0592,0,0,0,0,0,0,-6.9785,-6.981,-7.0011,-6.9914,-6.9938,-6.995,-7.0011,-7.001,-7.0044,-7.0064,-7.0065,-7.0029,-7.0089,-7.0107,-7.0235,-7.0319,-7.0157,-7.0166,-7.0572,-7.0581,-7.0589,-7.0713,0,0,0,0,0,0,-6.9778,-6.9809,-6.9874,-6.9916,-6.9944,-7.0127,-7.0016,-7.0016,-7.0061,-7.005,-7.0096,-7.0099,-7.0086,-7.0222,-7.0244,-7.0329,-7.0173,-7.0564,-7.0576,-7.0586,-7.0702,-7.0726,-7.0746,0,0,0,0,0,-6.9768,-6.9904,-6.9878,-6.9903,-7.0025,-7.0132,-7.0147,-7.0132,-7.0068,-7.0133,-7.0145,-7.0097,-7.0307,-7.0235,-7.026,-7.0349,-7.0559,-7.0573,-7.0585,-7.0692,-7.0721,-7.0745,0,0,0,0,0,0,-6.987,-6.9909,-6.988,-7.0035,-7.0081,-7.0117,-7.0198,-7.0163,-7.0227,-7.0214,-7.019,-7.0201,-7.0336,-7.0355,-7.0275,-7.0512,-7.0422,-7.0441,-7.0495,-7.0522,-7.0544,-7.0536,-7.0181,0,0,0,0,0,-6.9911,-6.9996,-7.0025,-7.0158,-7.0183,-7.0187,-7.0232,-7.0216,-7.0262,-7.0281,-7.0302,-7.0348,-7.0423,-7.0474,-7.0544,-7.0704,-7.0711,-7.0777,-7.0799,-7.0817,-7.0834,-7.0917,-7.0946,-7.0636,-7.0636,-7.0636,0,0,-6.9996,-7.0027,-7.0082,-7.0179,-7.0213,-7.03,-7.0204,-7.03,-7.0363,-7.0295,-7.0417,-7.0435,-7.0483,-7.0627,-7.0692,-7.0647,-7.0921,-7.0834,-7.0848,-7.0855,-7.0934,-7.0963,-7.099,-7.0645,-7.0644,-7.0642,0,0,-7.0194,-7.0228,-7.0342,-7.0378,-7.043,-7.0431,-7.0459,-7.05,-7.051,-7.0632,-7.0582,-7.0656,-7.0788,-7.0824,-7.0859,-7.107,-7.1027,-7.1093,-7.1208,-7.129,-7.1314,-7.1336,-7.141,-7.1437,-7.1109,-7.111,-7.111,0,-7.0293,-7.0423,-7.0405,-7.0505,-7.0548,-7.0491,-7.0605,-7.064,-7.0712,-7.0742,-7.0692,-7.0854,-7.0883,-7.1034,-7.1085,-7.1116,-7.1145,-7.1088,-7.1313,-7.1334,-7.1354,-7.1424,-7.1452,-7.1117,-7.1116,-7.1116,-7.1115,0,-7.0541,-7.0632,-7.0717,-7.079,-7.0842,-7.0949,-7.0944,-7.1,-7.0978,-7.0984,-7.1108,-7.114,-7.1216,-7.125,-7.123,-7.1398,-7.1369,-7.1316,-7.1226,-7.1391,-7.1457,-7.1484,-7.1128,-7.1125,-7.1123,-7.1121,0,0,-7.0809,-7.0869,-7.09,-7.0932,-7.0985,-7.1054,-7.1156,-7.1231,-7.1278,-7.1329,-7.1414,-7.1525,-7.1476,-7.1517,-7.1499,-7.1572,-7.1734,-7.1509,-7.151,-7.155,-7.192,-7.1959,-7.1991,-7.1707,-7.1712,-7.1716,-7.1915,0,-7.1009,-7.119,-7.1175,-7.1345,-7.1428,-7.1374,-7.1463,-7.1504,-7.1511,-7.1581,-7.1588,-7.1667,-7.1597,-7.1621,-7.169,-7.17,-7.1808,-7.1686,-7.1783,-7.1787,-7.1773,-7.2025,-7.2068,-7.2255,-7.1941,-7.1945,-7.1948,0,-7.1268,-7.133,-7.1508,-7.1547,-7.1581,-7.1662,-7.1728,-7.1796,-7.184,-7.184,-7.1885,-7.1855,-7.1956,-7.1863,-7.2,-7.1917,-7.1955,-7.1966,-7.1973,-7.1982,-7.1878,-7.2041,-7.2315,-7.2343,-7.1989,-7.1986,-7.1983,0,-7.1445,-7.1572,-7.1695,-7.1723,-7.1772,-7.183,-7.1852,-7.1891,-7.1936,-7.1994,-7.2022,-7.209,-7.2128,-7.218,-7.2168,-7.2102,-7.2308,-7.2214,-7.231,-7.231,-7.2356,-7.2353,-7.264,-7.2381,-7.2381,-7.238,-7.238,0,-7.1671,-7.1782,-7.1775,-7.1851,-7.1973,-7.1953,-7.2074,-7.2089,-7.2124,-7.22,-7.2156,-7.2228,-7.2208,-7.2278,-7.2269,-7.2384,-7.2401,-7.2402,-7.2399,-7.2407,-7.2406,-7.2432,-7.2418,-7.2388,-7.2386,-7.2385,-7.2383,0,-7.189,-7.1889,-7.202,-7.2055,-7.2066,-7.2154,-7.2183,-7.2253,-7.2257,-7.2353,-7.2374,-7.238,-7.246,-7.2453,-7.2543,-7.2537,-7.2678,-7.2659,-7.2664,-7.266,-7.2756,-7.2747,-7.3069,-7.3109,-7.2825,-7.2827,-7.283,0,-7.2034,-7.2119,-7.2163,-7.2211,-7.2238,-7.2316,-7.2362,-7.2345,-7.2395,-7.245,-7.2513,-7.259,-7.265,-7.278,-7.2791,-7.2859,-7.2841,-7.2949,-7.2851,-7.2855,-7.2842,-7.2837,-7.2844,-7.2968,-7.2971,-7.2974,-7.2976,0,-7.229,-7.2285,-7.2355,-7.2424,-7.2481,-7.2534,-7.2582,-7.2623,-7.2611,-7.2668,-7.275,-7.2797,-7.2889,-7.2965,-7.3029,-7.3049,-7.3011,-7.3007,-7.3032,-7.3042,-7.3041,-7.3042,-7.2717,-7.3,-7.2997,-7.2996,-7.2994,-7.2993,-7.2476,-7.2548,-7.259,-7.2668,-7.2702,-7.2748,-7.2816,-7.2827,-7.2896,-7.2971,-7.2955,-7.3047,-7.3086,-7.3169,-7.3196,-7.3266,-7.3226,-7.3264,-7.3273,-7.3283,-7.3294,-7.303,-7.3277,-7.3277,-7.3276,-7.3275,-7.3275,0,-7.2729,-7.2753,-7.2825,-7.2894,-7.2955,-7.2914,-7.2965,-7.3018,-7.31,-7.314,-7.3201,-7.3294,-7.3367,-7.3382,-7.3451,-7.3504,-7.3488,-7.3523,-7.3519,-7.3524,-7.3325,-7.3296,-7.3535,-7.3535,-7.3535,-7.3535,-7.3535,-7.3535,-7.2868,-7.2988,-7.2988,-7.3122,-7.3145,-7.3236,-7.3268,-7.3309,-7.3341,-7.3448,-7.3509,-7.3519,-7.3549,-7.3619,-7.3683,-7.3685,-7.3713,-7.3755,-7.375,-7.3564,-7.3538,-7.3513,-7.3486,-7.3761,-7.3761,-7.3943,-7.3945,-7.3946]}]]